Weather History for Buckeye, AZ

Change the Weather History Date:

Saturday, November 23, 2013

  Actual Average (KGYR) Record (KGYR)
Temperature  
Mean Temperature 54 °F -  
Max Temperature 57 °F 69 °F 82 °F (2012)
Min Temperature 50 °F 45 °F 35 °F (2010)
Degree Days  
Heating Degree Days 12    
Growing Degree Days 4 (Base 50)    
Moisture  
Dew Point 51 °F    
Average Humidity 94    
Maximum Humidity 100    
Minimum Humidity 72    
Precipitation  
Precipitation 0.21 in - - ()
Sea Level Pressure  
Sea Level Pressure 30.02 in    
Wind  
Wind Speed 10 mph (East)    
Max Wind Speed 17 mph    
Max Gust Speed 21 mph    
Visibility 9 miles    
Events      
Averages and records for this station are not official NWS values.
T = Trace of Precipitation, MM = Missing Value Source: NWS Daily Summary

Daily Weather History Graph

Daily Weather History Graph

Search for Another Location

Airport:

Trip Planner

Search our weather history database for the weather conditions in past years. The results will help you decide how hot, cold, wet, or windy it might be!

Date:

Astronomy

Nov. 23, 2013 Rise Set
Actual Time 7:09 AM MST 5:24 PM MST
Civil Twilight 6:43 AM MST 5:51 PM MST
Nautical Twilight 6:12 AM MST 6:21 PM MST
Astronomical Twilight 5:42 AM MST 6:51 PM MST
Moon 10:49 PM MST (11/23) 11:34 AM MST (11/23)
Length of Visible Light 11h 08m
Length of Day
10h 14m
Waning Gibbous, 69% of the Moon is Illuminated
Nov 23
Waning Gibbous
Nov 25
Last Quarter
Dec 2
New
Dec 9
First Quarter
Dec 17
Full

Hourly Weather History & Observations

Time (MST) Temp. Dew Point Humidity Pressure Visibility Wind Dir Wind Speed Gust Speed Precip Events Conditions
12:15 AM 51.8 °F 51.8 °F 100% 29.96 in 9.0 mi ESE 11.5 mph 20.7 mph 0.01 in   Overcast
12:35 AM 51.8 °F 51.8 °F 100% 29.97 in 10.0 mi ESE 6.9 mph - 0.01 in   Overcast
12:55 AM 51.8 °F 51.8 °F 100% 29.96 in 10.0 mi East 11.5 mph - 0.01 in   Overcast
1:15 AM 51.8 °F 51.8 °F 100% 29.96 in 10.0 mi East 11.5 mph 17.3 mph N/A   Overcast
1:35 AM 51.8 °F 51.8 °F 100% 29.95 in 10.0 mi East 13.8 mph - N/A   Overcast
1:55 AM 51.8 °F 51.8 °F 100% 29.97 in 10.0 mi East 12.7 mph 19.6 mph N/A   Overcast
2:15 AM 51.8 °F 51.8 °F 100% 29.99 in 10.0 mi East 12.7 mph - N/A   Overcast
2:35 AM 51.8 °F 51.8 °F 100% 29.99 in 10.0 mi East 12.7 mph - N/A   Overcast
2:55 AM 51.8 °F 51.8 °F 100% 29.98 in 9.0 mi ENE 11.5 mph - 0.01 in   Overcast
3:15 AM 51.8 °F 51.8 °F 100% 29.98 in 10.0 mi East 10.4 mph - N/A   Overcast
3:35 AM 51.8 °F 51.8 °F 100% 29.99 in 10.0 mi East 6.9 mph - N/A   Overcast
3:55 AM 50.0 °F 50.0 °F 100% 29.99 in 10.0 mi ESE 3.5 mph - N/A   Overcast
4:15 AM 50.0 °F 50.0 °F 100% 29.98 in 10.0 mi ENE 5.8 mph - N/A   Overcast
4:35 AM 51.8 °F 51.8 °F 100% 29.98 in 10.0 mi ENE 6.9 mph - N/A   Overcast
4:55 AM 51.8 °F 51.8 °F 100% 29.99 in 10.0 mi East 8.1 mph - N/A   Overcast
5:15 AM 51.8 °F 51.8 °F 100% 29.99 in 10.0 mi East 6.9 mph - N/A   Overcast
5:35 AM 51.8 °F 51.8 °F 100% 29.98 in 10.0 mi ENE 4.6 mph - N/A   Overcast
5:55 AM 51.8 °F 51.8 °F 100% 30.00 in 10.0 mi East 5.8 mph - N/A   Overcast
6:15 AM 51.8 °F 51.8 °F 100% 30.01 in 10.0 mi East 5.8 mph - N/A   Overcast
6:35 AM 51.8 °F 51.8 °F 100% 29.99 in 10.0 mi NNE 5.8 mph - N/A   Overcast
6:55 AM 51.8 °F 51.8 °F 100% 30.00 in 10.0 mi ENE 4.6 mph - N/A   Overcast
7:15 AM 51.8 °F 51.8 °F 100% 30.01 in 10.0 mi ENE 3.5 mph - N/A   Overcast
7:35 AM 51.8 °F 51.8 °F 100% 30.01 in 10.0 mi NE 3.5 mph - N/A   Overcast
7:55 AM 53.6 °F 53.6 °F 100% 30.03 in 10.0 mi East 5.8 mph - N/A   Overcast
8:15 AM 53.6 °F 53.6 °F 100% 30.03 in 10.0 mi East 6.9 mph - N/A   Overcast
8:35 AM 53.6 °F 53.6 °F 100% 30.03 in 3.0 mi East 9.2 mph - N/A   Overcast
8:55 AM 53.6 °F 53.6 °F 100% 30.03 in 10.0 mi East 9.2 mph - N/A   Mostly Cloudy
9:15 AM 53.6 °F 53.6 °F 100% 30.04 in 10.0 mi East 9.2 mph - N/A   Mostly Cloudy
9:35 AM 53.6 °F 53.6 °F 100% 30.04 in 10.0 mi East 15.0 mph - N/A   Overcast
9:55 AM 53.6 °F 53.6 °F 100% 30.04 in 10.0 mi East 11.5 mph - N/A   Overcast
10:15 AM 53.6 °F 53.6 °F 100% 30.05 in 5.0 mi East 10.4 mph - N/A   Mostly Cloudy
10:35 AM 55.4 °F 55.4 °F 100% 30.04 in 10.0 mi ENE 12.7 mph - N/A   Scattered Clouds
10:55 AM 55.4 °F 53.6 °F 94% 30.03 in 10.0 mi East 13.8 mph - N/A   Mostly Cloudy
11:15 AM 57.2 °F 53.6 °F 88% 30.03 in 10.0 mi East 15.0 mph - N/A   Overcast
11:35 AM 57.2 °F 50.0 °F 77% 30.03 in 10.0 mi East 17.3 mph - N/A   Mostly Cloudy
11:55 AM 55.4 °F 50.0 °F 82% 30.03 in 10.0 mi East 12.7 mph - N/A   Overcast
12:15 PM 55.4 °F 50.0 °F 82% 30.03 in 10.0 mi East 12.7 mph - N/A   Overcast
12:35 PM 55.4 °F 50.0 °F 82% 30.02 in 5.0 mi East 13.8 mph - N/A   Overcast
12:55 PM 55.4 °F 50.0 °F 82% 30.01 in 10.0 mi East 13.8 mph - N/A   Mostly Cloudy
1:15 PM 57.2 °F 50.0 °F 77% 30.01 in 10.0 mi East 16.1 mph 19.6 mph N/A   Overcast
1:35 PM 57.2 °F 50.0 °F 77% 30.01 in 10.0 mi East 16.1 mph - N/A   Overcast
1:55 PM 57.2 °F 50.0 °F 77% 30.01 in 10.0 mi East 13.8 mph - N/A   Overcast
2:15 PM 57.2 °F 50.0 °F 77% 30.01 in 10.0 mi East 12.7 mph - N/A   Overcast
2:35 PM 57.2 °F 48.2 °F 72% 30.01 in 10.0 mi East 12.7 mph - N/A   Mostly Cloudy
2:55 PM 57.2 °F 48.2 °F 72% 30.01 in 10.0 mi East 12.7 mph - N/A   Mostly Cloudy
3:15 PM 55.4 °F 48.2 °F 77% 30.01 in 10.0 mi East 13.8 mph - N/A   Overcast
3:35 PM 55.4 °F 48.2 °F 77% 30.01 in 10.0 mi East 13.8 mph - N/A   Overcast
3:55 PM 55.4 °F 51.8 °F 88% 30.01 in 10.0 mi East 11.5 mph - N/A   Overcast
4:15 PM 55.4 °F 50.0 °F 82% 30.02 in 10.0 mi East 10.4 mph 16.1 mph N/A   Mostly Cloudy
4:35 PM 55.4 °F 51.8 °F 88% 30.02 in 10.0 mi East 11.5 mph - N/A   Mostly Cloudy
4:55 PM 53.6 °F 53.6 °F 100% 30.02 in 4.0 mi East 6.9 mph - N/A   Overcast
5:15 PM 53.6 °F 53.6 °F 100% 30.02 in 3.0 mi East 10.4 mph - 0.02 in   Overcast
5:35 PM 53.6 °F 53.6 °F 100% 30.02 in 8.0 mi East 11.5 mph - 0.02 in   Overcast
5:55 PM 53.6 °F 53.6 °F 100% 30.02 in 5.0 mi East 11.5 mph - 0.04 in   Unknown
6:15 PM 53.6 °F 51.8 °F 94% 30.03 in 5.0 mi East 9.2 mph - 0.01 in   Unknown
6:35 PM 53.6 °F 53.6 °F 100% 30.04 in 10.0 mi ESE 5.8 mph - 0.02 in   Overcast
6:55 PM 53.6 °F 53.6 °F 100% 30.04 in 8.0 mi East 5.8 mph - 0.02 in   Unknown
7:15 PM 53.6 °F 53.6 °F 100% 30.05 in 9.0 mi East 4.6 mph - 0.01 in   Unknown
7:35 PM 51.8 °F 51.8 °F 100% 30.06 in 7.0 mi East 8.1 mph - 0.04 in   Overcast
7:55 PM 51.8 °F 51.8 °F 100% 30.06 in 8.0 mi ENE 5.8 mph - 0.06 in   Overcast
8:15 PM 51.8 °F 51.8 °F 100% 30.07 in 9.0 mi ENE 5.8 mph - 0.02 in   Overcast
8:35 PM 51.8 °F 51.8 °F 100% 30.08 in 10.0 mi ENE 6.9 mph - 0.03 in   Overcast
8:55 PM 50.0 °F 50.0 °F 100% 30.08 in 7.0 mi ENE 6.9 mph - 0.04 in   Overcast
9:15 PM 50.0 °F 50.0 °F 100% 30.09 in 7.0 mi NE 9.2 mph - 0.01 in   Overcast
9:35 PM 50.0 °F 50.0 °F 100% 30.08 in 8.0 mi NE 6.9 mph - 0.03 in   Overcast
9:55 PM 50.0 °F 50.0 °F 100% 30.08 in 10.0 mi NNE 6.9 mph - 0.03 in   Overcast
10:15 PM 50.0 °F 50.0 °F 100% 30.09 in 10.0 mi NE 4.6 mph - N/A   Overcast
10:35 PM 51.8 °F 48.2 °F 88% 30.08 in 10.0 mi ENE 6.9 mph - N/A   Overcast
10:55 PM 50.0 °F 48.2 °F 94% 30.09 in 10.0 mi ENE 6.9 mph - N/A   Overcast
11:15 PM 51.8 °F 46.4 °F 82% 30.09 in 10.0 mi NE 6.9 mph - N/A   Overcast
11:35 PM 50.0 °F 48.2 °F 94% 30.09 in 10.0 mi NNE 5.8 mph - N/A   Overcast
11:55 PM 50.0 °F 48.2 °F 94% 30.09 in 10.0 mi Calm Calm - N/A   Overcast